This is the latest recevied weather packets stored in our database for station/object DL9GRB-13. If no packets are shown the sender has not sent any weather packets the latest 1 day(s).
| Time | Temp. | Humidity | Pressure | Rain* | Wind** | Luminosity | Snow |
|---|---|---|---|---|---|---|---|
| 1777976888 | 10° C | 89% | 1010.6 hPa | 0 mm | 9.83 m/s, 346° | 120 W/m² | - |
| 1777976708 | 10° C | 89% | 1010.5 hPa | 0 mm | 3.13 m/s, 10° | 106 W/m² | - |
| 1777976528 | 10° C | 89% | 1010.6 hPa | 0 mm | 6.71 m/s, 102° | 95 W/m² | - |
| 1777976348 | 10° C | 89% | 1010.5 hPa | 0 mm | 1.79 m/s, 8° | 94 W/m² | - |
| 1777976168 | 10° C | 89% | 1010.5 hPa | 0 mm | 3.13 m/s, 30° | 92 W/m² | - |
| 1777975988 | 10° C | 89% | 1010.6 hPa | 0 mm | 5.81 m/s, 71° | 102 W/m² | - |
| 1777975808 | 10° C | 90% | 1010.4 hPa | 0 mm | 4.92 m/s, 246° | 104 W/m² | - |
| 1777975628 | 10° C | 90% | 1010.5 hPa | 0 mm | 2.68 m/s, 359° | 125 W/m² | - |
| 1777975448 | 10° C | 89% | 1010.7 hPa | 0 mm | 5.81 m/s, 84° | 127 W/m² | - |
| 1777975268 | 10° C | 89% | 1010.4 hPa | 0 mm | 5.36 m/s, 72° | 124 W/m² | - |
| 1777975088 | 10° C | 89% | 1010.5 hPa | 0 mm | 4.92 m/s, 51° | 119 W/m² | - |
| 1777974908 | 10° C | 90% | 1010.8 hPa | 0 mm | 4.02 m/s, 78° | 128 W/m² | - |
| 1777974728 | 10° C | 90% | 1010.5 hPa | 0 mm | 1.79 m/s, 189° | 139 W/m² | - |
| 1777974548 | 10° C | 90% | 1010.8 hPa | 0 mm | 2.68 m/s, 29° | 120 W/m² | - |
| 1777974368 | 10° C | 89% | 1010.4 hPa | 0 mm | 4.92 m/s, 93° | 127 W/m² | - |
| 1777974188 | 10° C | 90% | 1010.3 hPa | 0 mm | 2.68 m/s, 246° | 142 W/m² | - |
| 1777974008 | 10° C | 90% | 1010.5 hPa | 0 mm | 4.02 m/s, 323° | 135 W/m² | - |
| 1777973828 | 9.44° C | 90% | 1010.4 hPa | 0 mm | 4.92 m/s, 2° | 133 W/m² | - |
| 1777973648 | 10° C | 90% | 1010.5 hPa | 0 mm | 3.58 m/s, 322° | 133 W/m² | - |
| 1777973468 | 10° C | 90% | 1010.4 hPa | 0 mm | 3.58 m/s, 350° | 94 W/m² | - |
| 1777973288 | 10° C | 90% | 1010.6 hPa | 0.51 mm | 0 m/s | 115 W/m² | - |
| 1777973108 | 9.44° C | 90% | 1010.4 hPa | 0.51 mm | 4.47 m/s, 38° | 132 W/m² | - |
| 1777972928 | 9.44° C | 90% | 1010.5 hPa | 0.51 mm | 8.05 m/s, 323° | 140 W/m² | - |
| 1777972748 | 9.44° C | 91% | 1010.6 hPa | 0 mm | 7.15 m/s, 5° | 130 W/m² | - |
| 1777972568 | 10° C | 90% | 1010.4 hPa | 0 mm | 6.26 m/s, 10° | 153 W/m² | - |
* Rain latest hour (hover to see other rain measurements)
** Current wind speed in m/s (hover to see current wind gust speed)